KD5UIG Weather Reports


time (UTC)temp
F
wind
direction
speed
knots
gust
knots
rain 1hr
in
rain 24hr
in
rain mn
in
humidity
%
barometer
mb
20210927071614 66 174 0.0 0.9 0.00 0.00 0.00 70 1015.1
20210927071113 67 174 0.0 0.9 0.00 0.00 0.00 68 1015.1
20210927070626 67 174 0.0 1.7 0.00 0.00 0.00 67 1015.1
20210927070129 67 174 0.9 1.7 0.00 0.00 0.00 67 1015.0
20210927065627 67 174 0.0 1.7 0.00 0.00 0.00 67 1015.1
20210927065124 68 174 0.0 1.7 0.00 0.00 0.00 67 1015.1
20210927064628 67 174 0.0 0.9 0.00 0.00 0.00 67 1015.2
20210927064124 67 174 0.0 0.9 0.00 0.00 0.00 67 1015.1
20210927063624 67 174 0.0 0.9 0.00 0.00 0.00 67 1015.2
20210927063124 67 174 0.0 0.9 0.00 0.00 0.00 67 1015.2
20210927062617 67 174 0.0 0.9 0.00 0.00 0.00 67 1015.3
20210927062131 67 174 0.0 0.9 0.00 0.00 0.00 68 1015.2
20210927061627 66 174 0.0 0.9 0.00 0.00 0.00 68 1015.2
20210927061134 66 174 0.0 0.9 0.00 0.00 0.00 69 1015.3
20210927060632 66 174 0.0 0.9 0.00 0.00 0.00 70 1015.3
20210927060129 66 174 0.0 0.9 0.00 0.00 0.00 69 1015.3
20210927055611 66 174 0.0 0.9 0.00 0.00 0.00 69 1015.3
20210927055122 67 174 0.0 0.9 0.00 0.00 0.00 67 1015.2
20210927054610 67 174 0.0 0.9 0.00 0.00 0.00 66 1015.3
20210927054115 68 174 0.0 0.9 0.00 0.00 0.00 65 1015.3
20210927053616 69 174 0.0 1.7 0.00 0.00 0.00 63 1015.3
20210927053113 69 174 0.9 1.7 0.00 0.00 0.00 62 1015.3
20210927052612 70 174 0.0 1.7 0.00 0.00 0.00 61 1015.3
20210927052112 70 174 0.0 1.7 0.00 0.00 0.00 60 1015.3
20210927051626 70 173 0.0 1.7 0.00 0.00 0.00 60 1015.3
20210927051117 71 147 0.0 1.7 0.00 0.00 0.00 60 1015.4
20210927050613 71 147 0.0 1.7 0.00 0.00 0.00 60 1015.5
20210927050119 71 147 0.9 1.7 0.00 0.00 0.00 59 1015.5
20210927045627 71 144 0.0 0.9 0.00 0.00 0.00 59 1015.4
20210927045116 71 144 0.0 1.7 0.00 0.00 0.00 59 1015.4
20210927044616 71 150 0.0 2.6 0.00 0.00 0.00 58 1015.4
20210927044114 72 154 0.9 2.6 0.00 0.00 0.00 58 1015.4
20210927043625 71 136 0.0 1.7 0.00 0.00 0.00 58 1015.6
20210927043117 72 136 0.0 1.7 0.00 0.00 0.00 58 1015.6
20210927042615 72 136 0.0 1.7 0.00 0.00 0.00 58 1015.6
20210927042118 72 143 0.0 1.7 0.00 0.00 0.00 58 1015.6
20210927041609 72 143 0.0 1.7 0.00 0.00 0.00 58 1015.6
20210927041112 72 139 0.0 1.7 0.00 0.00 0.00 59 1015.6
20210927040616 71 139 0.9 1.7 0.00 0.00 0.00 59 1015.5
20210927040116 72 139 0.9 1.7 0.00 0.00 0.00 59 1015.5
20210927035627 72 139 0.0 1.7 0.00 0.00 0.00 58 1015.5
20210927035126 72 146 0.0 0.9 0.00 0.00 0.00 57 1015.5
20210927034630 72 146 0.0 0.9 0.00 0.00 0.00 57 1015.5
20210927034116 73 146 0.0 0.9 0.00 0.00 0.00 56 1015.4
20210927033632 73 146 0.0 0.9 0.00 0.00 0.00 55 1015.5
20210927033118 73 146 0.0 0.9 0.00 0.00 0.00 55 1015.4
20210927032623 73 146 0.0 0.9 0.00 0.00 0.00 55 1015.4
20210927032111 74 146 0.0 0.9 0.00 0.00 0.00 54 1015.4
20210927031611 74 146 0.0 1.7 0.00 0.00 0.00 53 1015.3
20210927031114 74 144 0.9 2.6 0.00 0.00 0.00 53 1015.4
20210927030625 74 131 0.9 3.5 0.00 0.00 0.00 54 1015.3
20210927030127 74 138 1.7 3.5 0.00 0.00 0.00 54 1015.3
20210927025625 74 138 0.0 1.7 0.00 0.00 0.00 54 1015.2
20210927025112 74 143 0.9 2.6 0.00 0.00 0.00 54 1015.3
20210927024616 74 142 0.9 2.6 0.00 0.00 0.00 53 1015.2
20210927024111 75 122 0.9 2.6 0.00 0.00 0.00 53 1015.2
20210927023619 75 121 0.9 1.7 0.00 0.00 0.00 52 1015.1
20210927023130 75 121 0.0 1.7 0.00 0.00 0.00 52 1015.1
20210927022619 75 130 0.0 1.7 0.00 0.00 0.00 51 1015.1
20210927022125 76 130 0.9 1.7 0.00 0.00 0.00 50 1015.1
20210927021613 76 138 0.0 2.6 0.00 0.00 0.00 50 1015.0
20210927021121 76 64 0.9 1.7 0.00 0.00 0.00 50 1015.0
20210927020623 76 148 0.9 2.6 0.00 0.00 0.00 50 1015.0
20210927020129 76 163 0.9 2.6 0.00 0.00 0.00 49 1015.0
20210927015627 76 147 0.9 1.7 0.00 0.00 0.00 49 1015.0
20210927015130 76 154 0.0 1.7 0.00 0.00 0.00 48 1014.9
20210927014614 77 146 0.0 1.7 0.00 0.00 0.00 48 1014.9
20210927014109 77 146 0.0 1.7 0.00 0.00 0.00 47 1014.8
20210927013622 77 146 0.0 1.7 0.00 0.00 0.00 47 1014.7
20210927013119 77 146 0.0 1.7 0.00 0.00 0.00 47 1014.7
20210927012623 77 146 0.0 1.7 0.00 0.00 0.00 46 1014.6
20210927012121 78 146 0.0 0.9 0.00 0.00 0.00 46 1014.5
20210927011620 78 146 0.0 0.9 0.00 0.00 0.00 45 1014.5
20210927011115 78 146 0.0 0.9 0.00 0.00 0.00 45 1014.5
20210927010628 79 146 0.0 0.9 0.00 0.00 0.00 44 1014.5
20210927010119 79 146 0.0 0.9 0.00 0.00 0.00 43 1014.4
20210927005612 80 146 0.0 1.7 0.00 0.00 0.00 42 1014.4
20210927005137 80 146 0.0 1.7 0.00 0.00 0.00 42 1014.4
20210927004629 80 146 0.0 1.7 0.00 0.00 0.00 41 1014.4
20210927004132 81 146 0.0 1.7 0.00 0.00 0.00 41 1014.4
20210927003628 81 146 0.0 0.9 0.00 0.00 0.00 40 1014.4
20210927003133 81 136 0.0 1.7 0.00 0.00 0.00 40 1014.3
20210927002629 82 136 0.0 1.7 0.00 0.00 0.00 40 1014.4
20210927002116 82 136 0.0 0.9 0.00 0.00 0.00 39 1014.3
20210927001618 83 136 0.0 0.9 0.00 0.00 0.00 38 1014.2
20210927001118 83 136 0.0 0.9 0.00 0.00 0.00 38 1014.2
20210927000629 84 136 0.0 0.9 0.00 0.00 0.00 37 1014.2
20210927000127 84 136 0.0 1.7 0.00 0.00 0.00 37 1014.1
20210926235612 85 136 0.9 1.7 0.00 0.00 0.00 36 1014.1
20210926235113 86 184 0.9 3.5 0.00 0.00 0.00 35 1014.1
20210926234621 87 184 0.9 3.5 0.00 0.00 0.00 34 1014.1
20210926234119 87 190 1.7 4.3 0.00 0.00 0.00 33 1014.2
20210926233614 87 225 0.9 4.3 0.00 0.00 0.00 33 1014.2
20210926233115 88 207 0.9 4.3 0.00 0.00 0.00 33 1014.2
20210926232615 88 209 1.7 5.2 0.00 0.00 0.00 33 1014.2
20210926232114 88 226 1.7 7.8 0.00 0.00 0.00 32 1014.3
20210926231629 89 153 1.7 7.8 0.00 0.00 0.00 32 1014.3
20210926231122 89 220 1.7 7.8 0.00 0.00 0.00 32 1014.2
20210926230623 89 184 1.7 4.3 0.00 0.00 0.00 31 1014.2
20210926230124 90 190 1.7 4.3 0.00 0.00 0.00 31 1014.2
20210926225617 89 59 1.7 5.2 0.00 0.00 0.00 31 1014.2
20210926225112 90 212 1.7 6.1 0.00 0.00 0.00 31 1014.3
20210926224620 90 205 1.7 6.1 0.00 0.00 0.00 30 1014.2
20210926224119 90 116 1.7 5.2 0.00 0.00 0.00 30 1014.3
20210926223630 90 169 1.7 7.0 0.00 0.00 0.00 30 1014.4
20210926223110 91 213 3.5 7.0 0.00 0.00 0.00 30 1014.3
20210926222628 90 163 1.7 7.8 0.00 0.00 0.00 30 1014.4
20210926222128 90 176 2.6 7.8 0.00 0.00 0.00 30 1014.4
20210926221628 91 309 1.7 7.8 0.00 0.00 0.00 30 1014.5
20210926221113 91 200 4.3 7.8 0.00 0.00 0.00 29 1014.5
20210926220632 91 131 1.7 7.8 0.00 0.00 0.00 30 1014.5
20210926220121 91 243 2.6 8.7 0.00 0.00 0.00 30 1014.5
20210926215615 91 127 2.6 8.7 0.00 0.00 0.00 30 1014.5
20210926215117 91 190 2.6 6.1 0.00 0.00 0.00 30 1014.4
20210926214623 91 153 1.7 9.6 0.00 0.00 0.00 30 1014.5
20210926214127 92 224 2.6 9.6 0.00 0.00 0.00 29 1014.5
20210926213620 92 150 1.7 9.6 0.00 0.00 0.00 29 1014.5
20210926213129 91 169 2.6 9.6 0.00 0.00 0.00 29 1014.5
20210926212613 91 173 2.6 7.0 0.00 0.00 0.00 30 1014.6
20210926212125 92 134 2.6 9.6 0.00 0.00 0.00 29 1014.5
20210926211629 92 210 4.3 9.6 0.00 0.00 0.00 30 1014.7
20210926211112 92 142 4.3 8.7 0.00 0.00 0.00 29 1014.7
20210926210614 92 200 3.5 7.0 0.00 0.00 0.00 29 1014.9
20210926210117 92 266 1.7 9.6 0.00 0.00 0.00 27 1014.9
20210926205615 92 243 3.5 10.4 0.00 0.00 0.00 27 1014.9
20210926205117 92 214 3.5 9.6 0.00 0.00 0.00 28 1014.9
20210926204615 92 175 3.5 12.2 0.00 0.00 0.00 29 1015.0
20210926204119 93 181 3.5 8.7 0.00 0.00 0.00 28 1015.0
20210926203610 92 202 4.3 8.7 0.00 0.00 0.00 27 1015.1
20210926203111 93 165 3.5 7.8 0.00 0.00 0.00 27 1015.2
20210926202623 92 217 3.5 7.8 0.00 0.00 0.00 28 1015.2
20210926202119 92 360 3.5 8.7 0.00 0.00 0.00 28 1015.3
20210926201613 92 66 3.5 8.7 0.00 0.00 0.00 29 1015.3
20210926201113 93 134 2.6 12.2 0.00 0.00 0.00 30 1015.4
20210926200611 92 218 3.5 12.2 0.00 0.00 0.00 30 1015.5
20210926200117 92 292 4.3 7.8 0.00 0.00 0.00 29 1015.5
20210926195612 92 132 2.6 9.6 0.00 0.00 0.00 31 1015.6
20210926195113 92 209 2.6 9.6 0.00 0.00 0.00 30 1015.8
20210926194626 92 172 2.6 9.6 0.00 0.00 0.00 29 1015.8
20210926194127 92 204 2.6 12.2 0.00 0.00 0.00 29 1015.9
20210926193621 92 207 5.2 12.2 0.00 0.00 0.00 29 1016.0
20210926193119 92 181 1.7 11.3 0.00 0.00 0.00 29 1016.0
20210926192619 91 196 5.2 11.3 0.00 0.00 0.00 29 1016.1
20210926192131 92 241 3.5 9.6 0.00 0.00 0.00 32 1016.1
20210926191622 92 241 1.7 12.2 0.00 0.00 0.00 31 1016.2
20210926191121 91 171 4.3 12.2 0.00 0.00 0.00 31 1016.5
20210926190609 91 189 1.7 7.8 0.00 0.00 0.00 31 1016.5
20210926190124 91 182 2.6 7.8 0.00 0.00 0.00 31 1016.6
20210926185629 92 161 1.7 6.1 0.00 0.00 0.00 31 1016.7
20210926185130 92 216 2.6 6.1 0.00 0.00 0.00 30 1016.8
20210926184631 91 29 2.6 8.7 0.00 0.00 0.00 31 1016.9
20210926184113 91 194 2.6 7.8 0.00 0.00 0.00 31 1017.0
20210926183623 91 221 2.6 7.0 0.00 0.00 0.00 31 1017.2
20210926183109 91 204 2.6 7.8 0.00 0.00 0.00 31 1017.2
20210926182620 91 176 3.5 12.2 0.00 0.00 0.00 31 1017.3
20210926182119 90 205 4.3 12.2 0.00 0.00 0.00 32 1017.4
20210926181615 90 208 2.6 9.6 0.00 0.00 0.00 32 1017.5
20210926181115 89 200 2.6 13.0 0.00 0.00 0.00 32 1017.6
20210926180610 90 200 4.3 13.0 0.00 0.00 0.00 31 1017.7
20210926180109 90 188 3.5 9.6 0.00 0.00 0.00 33 1017.8
20210926175614 90 119 4.3 9.6 0.00 0.00 0.00 31 1017.9
20210926175115 90 244 2.6 8.7 0.00 0.00 0.00 33 1017.9
20210926174614 90 306 2.6 7.8 0.00 0.00 0.00 34 1018.0
20210926174125 89 219 3.5 8.7 0.00 0.00 0.00 35 1018.1
20210926173623 89 261 5.2 11.3 0.00 0.00 0.00 32 1018.2
20210926173116 89 140 3.5 11.3 0.00 0.00 0.00 34 1018.2
20210926172613 89 228 3.5 9.6 0.00 0.00 0.00 33 1018.3
20210926172116 89 216 4.3 10.4 0.00 0.00 0.00 33 1018.4
20210926171619 89 196 2.6 9.6 0.00 0.00 0.00 34 1018.5
20210926171128 88 175 3.5 9.6 0.00 0.00 0.00 34 1018.5
20210926170627 88 175 3.5 7.8 0.00 0.00 0.00 34 1018.6
20210926170131 88 200 2.6 8.7 0.00 0.00 0.00 34 1018.6
20210926165629 88 171 5.2 9.6 0.00 0.00 0.00 34 1018.7
20210926165122 88 234 3.5 9.6 0.00 0.00 0.00 35 1018.8
20210926164625 88 207 3.5 8.7 0.00 0.00 0.00 35 1018.8
20210926164116 88 297 3.5 7.0 0.00 0.00 0.00 35 1018.8
20210926163620 88 199 2.6 6.1 0.00 0.00 0.00 35 1018.9
20210926163111 88 178 2.6 7.0 0.00 0.00 0.00 37 1018.9
20210926162630 87 192 2.6 8.7 0.00 0.00 0.00 35 1019.0
20210926162111 87 268 2.6 7.0 0.00 0.00 0.00 36 1019.0
20210926161625 87 148 2.6 8.7 0.00 0.00 0.00 36 1018.9
20210926161123 86 191 3.5 9.6 0.00 0.00 0.00 36 1019.0
20210926160622 86 165 2.6 9.6 0.00 0.00 0.00 38 1019.0
20210926160114 86 175 3.5 9.6 0.00 0.00 0.00 38 1019.1
20210926155611 85 186 6.1 9.6 0.00 0.00 0.00 37 1019.1
20210926155122 85 279 2.6 9.6 0.00 0.00 0.00 39 1019.1
20210926154625 84 157 2.6 7.0 0.00 0.00 0.00 41 1019.1
20210926154120 84 292 1.7 7.0 0.00 0.00 0.00 41 1019.2
20210926153627 83 250 2.6 7.8 0.00 0.00 0.00 43 1019.2
20210926153127 83 310 2.6 7.8 0.00 0.00 0.00 44 1019.2
20210926152615 83 167 2.6 7.0 0.00 0.00 0.00 43 1019.2
20210926152128 82 171 1.7 5.2 0.00 0.00 0.00 46 1019.2
20210926151624 81 57 1.7 7.8 0.00 0.00 0.00 47 1019.2
20210926151123 80 171 3.5 7.8 0.00 0.00 0.00 46 1019.1
20210926150612 80 227 1.7 9.6 0.00 0.00 0.00 48 1019.1
20210926150117 80 195 4.3 9.6 0.00 0.00 0.00 48 1019.1
20210926145613 79 191 2.6 7.0 0.00 0.00 0.00 49 1019.1
20210926145121 78 188 1.7 4.3 0.00 0.00 0.00 53 1019.1
20210926144612 77 168 1.7 6.1 0.00 0.00 0.00 53 1019.1
20210926144117 76 192 2.6 7.0 0.00 0.00 0.00 56 1019.0
20210926143630 74 183 1.7 3.5 0.00 0.00 0.00 60 1019.0
20210926143117 72 212 1.7 3.5 0.00 0.00 0.00 62 1019.0
20210926142611 72 209 0.9 2.6 0.00 0.00 0.00 61 1019.1
20210926142116 72 217 0.9 2.6 0.00 0.00 0.00 61 1019.1
20210926141623 72 198 0.9 4.3 0.00 0.00 0.00 61 1019.1
20210926141123 73 198 1.7 4.3 0.00 0.00 0.00 60 1019.0
20210926140616 72 200 1.7 3.5 0.00 0.00 0.00 60 1019.0
20210926140125 72 184 1.7 3.5 0.00 0.00 0.00 62 1018.9
20210926135627 71 184 0.9 2.6 0.00 0.00 0.00 65 1018.9
20210926135131 71 184 0.9 1.7 0.00 0.00 0.00 65 1018.8
20210926134621 69 184 0.9 1.7 0.00 0.00 0.00 67 1018.8
20210926134125 69 184 0.0 0.9 0.00 0.00 0.00 68 1018.7
20210926133613 67 184 0.0 0.9 0.00 0.00 0.00 72 1018.7
20210926133125 66 184 0.0 1.7 0.00 0.00 0.00 75 1018.7
20210926132619 66 184 0.0 1.7 0.00 0.00 0.00 72 1018.6
20210926132125 66 184 0.9 1.7 0.00 0.00 0.00 71 1018.6
20210926131618 65 184 0.0 3.5 0.00 0.00 0.00 72 1018.6
20210926131119 65 182 0.9 3.5 0.00 0.00 0.00 73 1018.6
20210926130623 65 163 0.0 0.9 0.00 0.00 0.00 74 1018.6
20210926130115 64 163 0.0 0.9 0.00 0.00 0.00 74 1018.6
20210926125615 63 163 0.0 0.9 0.00 0.00 0.00 75 1018.6
20210926125113 62 163 0.0 0.9 0.00 0.00 0.00 77 1018.6
20210926124629 61 163 0.0 0.0 0.00 0.00 0.00 80 1018.5
20210926124117 60 163 0.0 0.0 0.00 0.00 0.00 80 1018.6
20210926123619 60 163 0.0 0.0 0.00 0.00 0.00 80 1018.5
20210926123119 60 163 0.0 0.0 0.00 0.00 0.00 80 1018.4
20210926122613 60 163 0.0 0.0 0.00 0.00 0.00 81 1018.5
20210926122114 60 163 0.0 0.0 0.00 0.00 0.00 80 1018.4
20210926121618 60 163 0.0 0.0 0.00 0.00 0.00 80 1018.4
20210926121117 60 163 0.0 0.0 0.00 0.00 0.00 79 1018.4
20210926120628 61 163 0.0 0.0 0.00 0.00 0.00 78 1018.4
20210926120130 61 163 0.0 0.0 0.00 0.00 0.00 78 1018.4
20210926115622 61 163 0.0 0.0 0.00 0.00 0.00 78 1018.4
20210926115116 61 163 0.0 0.0 0.00 0.00 0.00 79 1018.4
20210926114614 60 163 0.0 0.0 0.00 0.00 0.00 79 1018.3
20210926114127 60 163 0.0 0.0 0.00 0.00 0.00 80 1018.3
20210926113624 60 163 0.0 0.9 0.00 0.00 0.00 79 1018.2
20210926113115 61 163 0.0 0.9 0.00 0.00 0.00 76 1018.2
20210926112629 63 163 0.0 0.9 0.00 0.00 0.00 73 1018.2
20210926112123 63 163 0.0 0.9 0.00 0.00 0.00 73 1018.2
20210926111615 63 163 0.0 0.9 0.00 0.00 0.00 73 1018.2
20210926111114 62 163 0.0 0.9 0.00 0.00 0.00 75 1018.1
20210926110611 61 163 0.0 0.0 0.00 0.00 0.00 77 1018.1
20210926110112 61 163 0.0 0.0 0.00 0.00 0.00 78 1018.1
20210926105611 61 163 0.0 0.0 0.00 0.00 0.00 78 1018.0
20210926105116 61 163 0.0 0.0 0.00 0.00 0.00 80 1017.9
20210926104619 60 163 0.0 0.0 0.00 0.00 0.00 81 1017.9
20210926104116 60 163 0.0 0.0 0.00 0.00 0.00 79 1017.9
20210926103626 61 163 0.0 0.0 0.00 0.00 0.00 78 1017.9
20210926103122 61 163 0.0 0.0 0.00 0.00 0.00 77 1017.8
20210926102623 62 163 0.0 0.0 0.00 0.00 0.00 76 1017.7
20210926102114 61 163 0.0 0.0 0.00 0.00 0.00 76 1017.7
20210926101622 62 163 0.0 0.0 0.00 0.00 0.00 75 1017.7
20210926101120 63 163 0.0 0.0 0.00 0.00 0.00 72 1017.5
20210926100610 63 163 0.0 0.0 0.00 0.00 0.00 72 1017.5
20210926100120 62 163 0.0 0.0 0.00 0.00 0.00 74 1017.4
20210926095614 62 163 0.0 0.0 0.00 0.00 0.00 74 1017.4
20210926095119 62 163 0.0 0.0 0.00 0.00 0.00 76 1017.4
20210926094628 62 163 0.0 0.9 0.00 0.00 0.00 77 1017.3
20210926094129 63 163 0.0 0.9 0.00 0.00 0.00 78 1017.3
20210926093626 63 182 0.0 0.0 0.00 0.00 0.00 72 1017.2
20210926093121 63 182 0.0 0.0 0.00 0.00 0.00 72 1017.3
20210926092611 63 182 0.0 0.0 0.00 0.00 0.00 72 1017.2
20210926092120 63 182 0.0 0.0 0.00 0.00 0.00 73 1017.3
20210926091623 62 182 0.0 0.0 0.00 0.00 0.00 74 1017.3
20210926091125 63 182 0.0 0.0 0.00 0.00 0.00 74 1017.2
20210926090628 63 182 0.0 0.0 0.00 0.00 0.00 74 1017.2
20210926090118 63 182 0.0 0.0 0.00 0.00 0.00 74 1017.2
20210926085625 63 182 0.0 0.0 0.00 0.00 0.00 74 1017.1
20210926085127 63 182 0.0 0.0 0.00 0.00 0.00 74 1017.1
20210926084616 63 182 0.0 0.0 0.00 0.00 0.00 74 1017.1
20210926084127 63 182 0.0 0.0 0.00 0.00 0.00 73 1017.1
20210926083630 63 182 0.0 0.0 0.00 0.00 0.00 73 1017.1
20210926083119 63 182 0.0 0.0 0.00 0.00 0.00 72 1017.1
20210926082616 63 182 0.0 0.0 0.00 0.00 0.00 72 1017.1
20210926082131 64 182 0.0 0.0 0.00 0.00 0.00 71 1017.1
20210926081632 64 182 0.0 0.0 0.00 0.00 0.00 71 1017.0
20210926081127 64 182 0.0 0.0 0.00 0.00 0.00 71 1017.1
20210926080627 63 182 0.0 0.0 0.00 0.00 0.00 72 1017.1
20210926080121 63 182 0.0 0.0 0.00 0.00 0.00 72 1017.1
20210926075609 63 182 0.0 0.9 0.00 0.00 0.00 71 1017.1
20210926075112 64 182 0.0 0.9 0.00 0.00 0.00 69 1017.1
20210926074629 66 182 0.0 0.0 0.00 0.00 0.00 65 1017.1
20210926074116 67 182 0.0 0.0 0.00 0.00 0.00 65 1017.1
20210926073611 67 182 0.0 0.9 0.00 0.00 0.00 63 1017.2
20210926073114 67 182 0.0 0.9 0.00 0.00 0.00 63 1017.1
20210926072612 66 182 0.0 0.0 0.00 0.00 0.00 65 1017.1
20210926072114 65 182 0.0 0.9 0.00 0.00 0.00 68 1017.2